When you browse on this site, cookies collect data to enhance your experience and personalize the content and advertising you see.
Visit our Privacy Policy to learn more. By continuing to use the site, you agree to this use of cookies and data.
  • în România
  • Lista ţărilor
  • Pe 7 zile
  • Temperatura apei
  • Hartă satelitară
  • Meteo pe hartă
  • Widget-uri
  • user-avatar
    Intrare

    Meteo pe oră la La Palma

    Astăzi, 19 Iulie, Vineri

    Timp Temperatura Precipitaţii Vânt Presiune Umiditate
    00:00 +25°C° 0.1 mm 0 m/s 757 mmHg 96%
    01:00 +24°C° 0.1 mm 0 m/s 757 mmHg 97%
    02:00 +26°C° 0.1 mm 1 m/s 757 mmHg 97%
    03:00 +26°C° 0.1 mm 1 m/s 756 mmHg 98%
    04:00 +26°C° 0.1 mm 1 m/s 756 mmHg 98%
    05:00 +26°C° 0 mm 1 m/s 756 mmHg 98%
    06:00 +26°C° 0 mm 1 m/s 756 mmHg 97%
    07:00 +27°C° 0 mm 1 m/s 756 mmHg 96%
    08:00 +29°C° 0 mm 1 m/s 757 mmHg 87%
    09:00 +29°C° 0 mm 0 m/s 757 mmHg 78%
    10:00 +31°C° 0 mm 0 m/s 757 mmHg 69%
    11:00 +34°C° 0.1 mm 1 m/s 757 mmHg 66%
    12:00 +34°C° 0.1 mm 1 m/s 756 mmHg 63%
    13:00 +35°C° 0.1 mm 1 m/s 756 mmHg 61%
    14:00 +35°C° 0.9 mm 2 m/s 755 mmHg 68%
    15:00 +32°C° 0.9 mm 2 m/s 755 mmHg 76%
    16:00 +31°C° 0.9 mm 2 m/s 754 mmHg 84%
    17:00 +30°C° 0.1 mm 2 m/s 754 mmHg 87%
    18:00 +29°C° 0.1 mm 2 m/s 755 mmHg 90%
    19:00 +28°C° 0.1 mm 2 m/s 755 mmHg 93%
    20:00 +28°C° 0.2 mm 1 m/s 756 mmHg 94%
    21:00 +28°C° 0.2 mm 1 m/s 756 mmHg 95%
    22:00 +28°C° 0.2 mm 1 m/s 757 mmHg 96%
    23:00 +27°C° 0.1 mm 1 m/s 756 mmHg 96%

    Mâine, 20 Iulie, Sâmbătă

    Timp Temperatura Precipitaţii Vânt Presiune Umiditate
    00:00 +27°C° 0.1 mm 1 m/s 756 mmHg 97%
    01:00 +26°C° 0.1 mm 1 m/s 756 mmHg 98%
    02:00 +26°C° 0.5 mm 1 m/s 755 mmHg 98%
    03:00 +26°C° 0.5 mm 1 m/s 755 mmHg 98%
    04:00 +26°C° 0.5 mm 1 m/s 755 mmHg 99%
    05:00 +26°C° 2.4 mm 1 m/s 755 mmHg 98%
    06:00 +26°C° 2.4 mm 1 m/s 755 mmHg 97%
    07:00 +26°C° 2.4 mm 1 m/s 756 mmHg 97%
    08:00 +27°C° 0 mm 1 m/s 756 mmHg 93%
    09:00 +28°C° 0 mm 1 m/s 756 mmHg 88%
    10:00 +29°C° 0 mm 1 m/s 756 mmHg 84%
    11:00 +31°C° 0 mm 1 m/s 756 mmHg 75%
    12:00 +32°C° 0 mm 1 m/s 756 mmHg 67%
    13:00 +34°C° 0 mm 1 m/s 755 mmHg 58%
    14:00 +34°C° 0 mm 1 m/s 755 mmHg 58%
    15:00 +34°C° 0 mm 1 m/s 754 mmHg 59%
    16:00 +34°C° 0 mm 1 m/s 754 mmHg 59%
    17:00 +32°C° 0 mm 1 m/s 754 mmHg 68%
    18:00 +30°C° 0 mm 1 m/s 754 mmHg 77%
    19:00 +28°C° 0 mm 1 m/s 755 mmHg 86%
    20:00 +27°C° 0 mm 1 m/s 755 mmHg 88%
    21:00 +25°C° 0 mm 0 m/s 756 mmHg 90%
    22:00 +25°C° 0 mm 0 m/s 756 mmHg 91%
    23:00 +25°C° 0.1 mm 0 m/s 756 mmHg 93%

    Poimâine, 21 Iulie, Duminică

    Timp Temperatura Precipitaţii Vânt Presiune Umiditate
    00:00 +24°C° 0.1 mm 0 m/s 756 mmHg 95%
    01:00 +24°C° 0.1 mm 0 m/s 756 mmHg 96%
    02:00 +26°C° 0.2 mm 1 m/s 756 mmHg 97%
    03:00 +26°C° 0.2 mm 1 m/s 755 mmHg 97%
    04:00 +26°C° 0.2 mm 1 m/s 755 mmHg 97%
    05:00 +26°C° 0.1 mm 1 m/s 755 mmHg 96%
    06:00 +26°C° 0.1 mm 1 m/s 756 mmHg 95%
    07:00 +26°C° 0.1 mm 1 m/s 756 mmHg 94%
    08:00 +28°C° 0 mm 1 m/s 756 mmHg 87%
    09:00 +30°C° 0 mm 1 m/s 756 mmHg 81%
    10:00 +31°C° 0 mm 1 m/s 756 mmHg 74%
    11:00 +32°C° 0 mm 1 m/s 756 mmHg 70%
    12:00 +33°C° 0 mm 1 m/s 756 mmHg 67%
    13:00 +34°C° 0 mm 1 m/s 756 mmHg 63%
    14:00 +34°C° 0.1 mm 2 m/s 755 mmHg 66%
    15:00 +32°C° 0.1 mm 2 m/s 755 mmHg 68%
    16:00 +32°C° 0.1 mm 2 m/s 754 mmHg 71%
    17:00 +31°C° 0 mm 2 m/s 755 mmHg 77%
    18:00 +29°C° 0 mm 2 m/s 755 mmHg 83%
    19:00 +28°C° 0 mm 1 m/s 756 mmHg 89%
    20:00 +28°C° 0.1 mm 1 m/s 756 mmHg 91%
    21:00 +27°C° 0.1 mm 1 m/s 757 mmHg 92%
    22:00 +27°C° 0.1 mm 1 m/s 757 mmHg 94%
    23:00 +27°C° 0.3 mm 1 m/s 757 mmHg 94%

    22 Iulie, Luni

    Timp Temperatura Precipitaţii Vânt Presiune Umiditate
    00:00 +27°C° 0.3 mm 1 m/s 757 mmHg 95%
    01:00 +24°C° 0.3 mm 0 m/s 757 mmHg 95%
    02:00 +24°C° 0.2 mm 0 m/s 756 mmHg 95%
    03:00 +24°C° 0.2 mm 0 m/s 756 mmHg 95%
    04:00 +24°C° 0.2 mm 0 m/s 755 mmHg 95%
    05:00 +24°C° 0.2 mm 0 m/s 756 mmHg 95%
    06:00 +27°C° 0.2 mm 1 m/s 756 mmHg 94%
    07:00 +27°C° 0.2 mm 1 m/s 757 mmHg 94%
    08:00 +29°C° 0 mm 1 m/s 757 mmHg 85%
    09:00 +31°C° 0 mm 1 m/s 757 mmHg 77%
    10:00 +33°C° 0 mm 1 m/s 757 mmHg 69%
    11:00 +32°C° 1.1 mm 1 m/s 757 mmHg 74%
    12:00 +31°C° 1.1 mm 2 m/s 757 mmHg 79%
    13:00 +31°C° 1.1 mm 3 m/s 756 mmHg 85%
    14:00 +30°C° 1.1 mm 3 m/s 756 mmHg 86%
    15:00 +30°C° 1.1 mm 3 m/s 756 mmHg 86%
    16:00 +29°C° 1.1 mm 3 m/s 755 mmHg 87%
    17:00 +28°C° 0.3 mm 3 m/s 756 mmHg 90%
    18:00 +28°C° 0.3 mm 2 m/s 756 mmHg 92%
    19:00 +27°C° 0.3 mm 2 m/s 757 mmHg 95%
    20:00 +27°C° 0.2 mm 2 m/s 757 mmHg 95%
    21:00 +27°C° 0.2 mm 1 m/s 758 mmHg 96%
    22:00 +26°C° 0.2 mm 1 m/s 758 mmHg 96%
    23:00 +26°C° 0.7 mm 1 m/s 758 mmHg 96%

    23 Iulie, Marţi

    Timp Temperatura Precipitaţii Vânt Presiune Umiditate
    00:00 +26°C° 0.7 mm 1 m/s 758 mmHg 97%
    01:00 +26°C° 0.7 mm 2 m/s 758 mmHg 97%
    02:00 +26°C° 1.7 mm 1 m/s 757 mmHg 97%
    03:00 +26°C° 1.7 mm 1 m/s 757 mmHg 97%
    04:00 +25°C° 1.7 mm 1 m/s 757 mmHg 98%
    05:00 +26°C° 0.5 mm 1 m/s 757 mmHg 97%
    06:00 +26°C° 0.5 mm 1 m/s 757 mmHg 97%
    07:00 +26°C° 0.5 mm 1 m/s 758 mmHg 97%
    08:00 +28°C° 0.2 mm 1 m/s 758 mmHg 89%
    09:00 +29°C° 0.2 mm 1 m/s 758 mmHg 82%
    10:00 +31°C° 0.2 mm 1 m/s 758 mmHg 75%
    11:00 +32°C° 0.3 mm 1 m/s 758 mmHg 72%
    12:00 +33°C° 0.3 mm 1 m/s 757 mmHg 70%
    13:00 +34°C° 0.3 mm 2 m/s 757 mmHg 67%
    14:00 +32°C° 0.9 mm 2 m/s 756 mmHg 73%
    15:00 +31°C° 0.9 mm 2 m/s 756 mmHg 80%
    16:00 +29°C° 0.9 mm 3 m/s 755 mmHg 86%
    17:00 +29°C° 0.1 mm 2 m/s 756 mmHg 88%
    18:00 +28°C° 0.1 mm 2 m/s 757 mmHg 90%
    19:00 +27°C° 0.1 mm 2 m/s 757 mmHg 93%
    20:00 +27°C° 0.1 mm 1 m/s 758 mmHg 94%
    21:00 +27°C° 0.1 mm 1 m/s 758 mmHg 95%
    22:00 +26°C° 0.1 mm 1 m/s 758 mmHg 95%
    23:00 +26°C° 0.5 mm 1 m/s 758 mmHg 96%

    24 Iulie, Miercuri

    Timp Temperatura Precipitaţii Vânt Presiune Umiditate
    00:00 +26°C° 0.5 mm 1 m/s 758 mmHg 96%
    01:00 +26°C° 0.5 mm 1 m/s 758 mmHg 96%
    02:00 +26°C° 1 mm 1 m/s 757 mmHg 97%
    03:00 +23°C° 1 mm 0 m/s 757 mmHg 97%
    04:00 +23°C° 1 mm 0 m/s 757 mmHg 98%
    05:00 +23°C° 0.7 mm 0 m/s 757 mmHg 97%
    06:00 +24°C° 0.7 mm 0 m/s 757 mmHg 97%
    07:00 +24°C° 0.7 mm 0 m/s 757 mmHg 97%
    08:00 +26°C° 0.4 mm 0 m/s 758 mmHg 90%
    09:00 +27°C° 0.4 mm 0 m/s 758 mmHg 84%
    10:00 +31°C° 0.4 mm 1 m/s 758 mmHg 77%
    11:00 +31°C° 1.1 mm 1 m/s 758 mmHg 80%
    12:00 +30°C° 1.1 mm 2 m/s 757 mmHg 83%
    13:00 +30°C° 1.1 mm 2 m/s 757 mmHg 86%
    14:00 +29°C° 2.2 mm 2 m/s 756 mmHg 88%
    15:00 +29°C° 2.2 mm 2 m/s 756 mmHg 91%
    16:00 +28°C° 2.2 mm 1 m/s 755 mmHg 93%
    17:00 +28°C° 1.6 mm 1 m/s 756 mmHg 94%
    18:00 +27°C° 1.6 mm 1 m/s 756 mmHg 95%
    19:00 +26°C° 1.6 mm 1 m/s 757 mmHg 96%
    20:00 +26°C° 0.4 mm 1 m/s 757 mmHg 97%
    21:00 +26°C° 0.4 mm 1 m/s 758 mmHg 97%
    22:00 +26°C° 0.4 mm 1 m/s 758 mmHg 98%
    23:00 +26°C° 0 mm 1 m/s 758 mmHg 98%
    Arată mai mult